Regional Weather Roundup
Issued by NWS

Home | Current Version | Previous Version | Text Only | Print | Product List | Glossary On
Versions: 1 2 3 4 5 6 7 8 9 10 11 12 13 14 15 16 17 18 19 20 21 22 23 24 25 26 27 28 29 30 31 32 33 34 35 36 37 38 39 40 41 42 43 44 45 46 47 48 49 50
000
ASUS43 KMKX 172221
RWRWI

WISCONSIN REGIONAL WEATHER ROUNDUP
NATIONAL WEATHER SERVICE MILWAUKEE/SULLIVAN WI
400 PM CST TUE JAN 17 2017

NOTE: "FAIR" INDICATES FEW OR NO CLOUDS BELOW 12,000 FEET WITH NO
SIGNIFICANT WEATHER AND/OR OBSTRUCTIONS TO VISIBILITY.

WIZ001-002-006>008-014>016-023>028-172300-
NORTHWEST WISCONSIN

CITY           SKY/WX    TMP DP  RH WIND       PRES   REMARKS
SUPERIOR ARPT  CLEAR     34  27  75 SW5       29.94S WCI  30
ASHLAND        CLEAR     36  27  69 W5        29.93  WCI  32
HAYWARD        CLEAR     43  23  45 VRB5      29.92R
SIREN          CLEAR     37  25  61 W6        29.95R WCI  33
CUMBERLAND     CLEAR     36  28  75 W9        29.93R WCI  29
RICE LAKE      CLEAR     38  32  77 W5        29.94R WCI  35
CHETEK         CLEAR     37  32  81 N3        29.93R
LADYSMITH      CLEAR     39  32  76 W3        29.91S
EAU CLAIRE     CLOUDY    36  35  96 W5        29.93R WCI  32
MENOMONIE      MOCLDY    38  33  83 W9        29.94R WCI  31
NEW RICHMOND   CLEAR     35  30  82 W8        29.97R WCI  28
OSCEOLA        CLEAR     35  29  78 W7        30.00R WCI  30
$$

WIZ003>005-009-010-017-018-172300-
NORTH CENTRAL WISCONSIN

CITY           SKY/WX    TMP DP  RH WIND       PRES   REMARKS
MANITOWISH WTR MOCLDY    40  23  50 CALM      29.88R
ARBOR VITAE    CLEAR     40  30  66 N3        29.87S
WOODRUFF       CLEAR     40  30  66 N3        29.87S
RHINELANDER    CLOUDY    40  32  73 N3        29.88R
EAGLE RIVER    CLOUDY    39  26  60 CALM      29.86S
LAND O LAKES   CLOUDY    39  24  53 CALM      29.88S
PHILLIPS       CLEAR     42  31  64 NW3       29.88R
TOMAHAWK       CLOUDY    39  31  74 CALM      29.89R
MEDFORD        CLOUDY    38  33  84 W5        29.88R WCI  34
MERRILL        CLOUDY    36  35  94 CALM        N/A
$$

WIZ029-030-035-036-043>047-172300-
CENTRAL WISCONSIN

CITY           SKY/WX    TMP DP  RH WIND       PRES   REMARKS
WAUSAU         CLOUDY    36  34  92 CALM      29.87R
MOSINEE        CLOUDY    34  34 100 CALM      29.89  FOG
MARSHFIELD     CLOUDY    35  33  92 NW6       29.89R WCI  30
STEVENS POINT  DRIZZLE   33  33 100 N5        29.89R WCI  28
WAUPACA        CLOUDY    36  34  92 CALM      29.89R FOG
WAUTOMA        CLOUDY    34  33  96 NW3       29.90R
WISC RAPIDS    CLOUDY    35  35 100 N5        29.90R FOG     WCI  31
CAMP DOUGLAS   CLOUDY    35  34  97 NW6       29.90R FOG     WCI  29
$$

WIZ011>013-019>022-031-037>040-048>050-172300-
NORTHEAST WISCONSIN

CITY           SKY/WX    TMP DP  RH WIND       PRES   REMARKS
ANTIGO         CLOUDY    33  33 100 N5        29.87R FOG     WCI  28
SHAWANO        CLOUDY    35  33  94 N3        29.89R FOG
OCONTO         CLOUDY    33  32  97 N5        29.89R WCI  29
STURGEON BAY   FOG       33  32  96 N10       29.87R VSB 1/4 WCI  25
GREEN BAY      FOG       35  35 100 N8        29.88R VSB 1   WCI  29
MANITOWOC      LGT RAIN  34  34 100 NW8       29.87R FOG     WCI  27
APPLETON       FOG       34  34 100 N8        29.86R VSB 1/2 WCI  27
CLINTONVILLE   DRZL/FOG  34  32  93 N5        29.89R VSB 1   WCI  30
OSHKOSH        LGT RAIN  34  32  92 NW7       29.88R VSB 1   WCI  28
$$

WIZ032>034-041-042-053>061-172300-
SOUTHWEST WISCONSIN

CITY           SKY/WX    TMP DP  RH WIND       PRES   REMARKS
LA CROSSE      MIX PCPN  36  33  89 NW9       29.94R FOG     WCI  29
SPARTA         CLOUDY    33  33 100 W3        29.93R FOG
VIROQUA        CLOUDY    33  33 100 NW7       29.91R WCI  26
BOSCOBEL       LGT RAIN  36  33  89 SW3       29.94R FOG
PRAIRIE DU CHI DRIZZLE   34  33  96 W5        29.95R WCI  30
PLATTEVILLE    CLOUDY    34  34 100 W9        29.93R WCI  26
$$

WIZ056-057-062-063-064-067-068-172300-
SOUTH CENTRAL WISCONSIN

CITY           SKY/WX    TMP DP  RH WIND       PRES   REMARKS
REEDSBURG      LGT RAIN  33  33 100 W3        29.89R
BARABOO/DELLS  DRIZZLE   33  33  99 NW5       29.89R WCI  29
LONE ROCK      LGT RAIN  34  33  96 W5        29.93R FOG     WCI  30
MINERAL POINT  CLOUDY    34  34 100 W8        29.91R WCI  27
MADISON        CLOUDY    34  33  96 W3        29.91R
MIDDLETON      CLOUDY    35  35 100 W6        29.90R WCI  30
WATERTOWN      CLOUDY    33  33 100 W5        29.89R FOG     WCI  29
MONROE         CLOUDY    32  32 100 W10       29.90R FOG     WCI  24
JANESVILLE     CLOUDY    36  36 100 W8        29.90R FOG     WCI  29
$$

WIZ051-052-058>065-066-070>072-172300-
SOUTHEAST WISCONSIN

CITY           SKY/WX    TMP DP  RH WIND       PRES   REMARKS
MILWAUKEE      CLOUDY    38  34  85 W8        29.88R WCI  32
WAUKESHA       CLOUDY    32  32 100 W8        29.89R FOG     WCI  25
MILWAUKEE/TIMM CLOUDY    36  32  87 W9        29.88R FOG     WCI  29
RACINE         CLOUDY    37  34  89 W9        29.90R WCI  30
KENOSHA        CLOUDY    37  34  89 W10       29.89R FOG     WCI  30
FOND DU LAC    CLOUDY    34  32  92 NW6       29.88R FOG     WCI  29
SHEBOYGAN      CLOUDY    34  33  96 NW7       29.86R FOG     WCI  28
WEST BEND      CLOUDY    34  34 100 W7        29.87R FOG     WCI  28
JUNEAU         DRIZZLE   33  32  99 NW5       29.89R WCI  28
$$

LSZ147-162-172300-
LAKE SUPERIOR

STATION/POSITION TIME  TEMP    WIND        PRES    WAVE
                       AIR SEA DIR/SP/G            HT/PER
                 (UTC) (F)     (DEG/KT/KT) (MB)    (FT/S)
DEVILS ISLAND    2200   33     240/  6/  7 1014.4S
PORT WING        2140   36     230/  1/  2 1014.2S
SAXON HARBOR     2140   36      CALM  /  1 1013.5S
$$

LMZ867-665-643>646-172300-
LAKE MICHIGAN

STATION/POSITION TIME  TEMP    WIND        PRES    WAVE
                       AIR SEA DIR/SP/G            HT/PER
                 (UTC) (F)     (DEG/KT/KT) (MB)    (FT/S)
NORTHPORT PIER   2140   33      20/  7/  9 1011.5R
SISTER BAY       2150   33      30/  8/ 10   N/A
ALGOMA LAKESHORE 2108          340/  2/  5   N/A
KEWAUNEE LAKESHO 2154   35     330/  7/ 11 1010.5R
SHEBOYGAN LAKESH 2200   35     300/  8/ 10 1011.6R
PORT WASHINGTON  2130   36     300/  7/  9 1012.2R
MILWAUKEE LAKESH 2200   37     270/ 10/ 13   N/A
KENOSHA   LAKESH 2200   37     260/  8/ 13 1012.5
$$

TC  - TEMPERATURE IN CELSIUS
VSB - VISIBILITY IN STATUTE MILES
WCI - WIND CHILL INDEX
HX  - HEAT INDEX




USA.gov is the U.S. government's official web portal to all federal, state and local government web resources and services.